Location: Waldport
(44.4270°N, 124.0680°W)
Time: 22:51:05
(UTC-07:00)

Amateur Radio Satellites - All Passes

Search period start: 30 May 2016 22:21
Search period end: 31 May 2016 22:21
Location: Waldport, 44.4270°N, 124.0680°W

Satellite Date Start Highest point End Downlink Frequencies (MHz)
Time Altitude Azimuth
PRISM 30 May 22:24:44 22:28:41 41° 290° (WNW) 22:32:35 437.425
GONETS M04 30 May 22:26:56 22:35:44 87° 96° (E) 22:44:32
DELFI C3 30 May 22:27:13 22:31:08 61° 259° (WSW) 22:35:07 145.870
AAUSAT CUBESAT 2 30 May 22:30:19 22:32:07 12° 271° (W) 22:33:55 437.432
HUMSAT D 30 May 22:36:45 22:40:49 75° 74° (ENE) 22:44:54 437.325/437.525
DANDE 30 May 22:37:51 22:45:43 41° 68° (ENE) 22:52:45 436.750
Oscar 11 30 May 22:40:07 22:43:34 23° 266° (W) 22:47:03 145.826/435.025
AIST 1 30 May 22:51:39 22:54:24 16° 292° (WNW) 22:57:09
ISS 30 May 22:54:06 22:57:01 29° 345° (NNW) 22:59:56 145.825
UNISAT 6 30 May 22:55:05 22:58:36 24° 94° (E) 23:02:08 437.425
TIGRISAT 30 May 23:01:16 23:04:53 26° 95° (E) 23:08:33 435.000
ZACube-1 30 May 23:02:51 23:05:19 15° 269° (W) 23:07:47 437.345
DX 1 30 May 23:05:34 23:08:41 19° 63° (ENE) 23:11:49 434.975-435.025
CUBEBUG 1 30 May 23:06:28 23:09:58 23° 65° (ENE) 23:13:29 437.445
ESTCUBE 1 30 May 23:16:13 23:20:26 40° 70° (ENE) 23:24:42 437.505/2401.250
SPROUT 30 May 23:18:21 23:20:07 12° 61° (ENE) 23:21:55 437.525
VELOX 1 30 May 23:22:47 23:26:46 33° 68° (ENE) 23:30:46 145.980
QB50P1 30 May 23:32:51 23:33:24 10° 88° (E) 23:33:58 145.935-145.965
POPSAT HIP 1 30 May 23:33:18 23:33:22 10° 88° (E) 23:33:25 437.405
QB50P2 30 May 23:35:29 23:37:08 12° 89° (E) 23:38:48 145.880/145.840
ANTELSAT 30 May 23:35:37 23:39:55 63° 101° (E) 23:44:16 437.575/2403.000
POLYITAN 1 30 May 23:37:53 23:39:38 12° 90° (E) 23:41:22 437.675
AIST 2 30 May 23:38:06 23:40:24 15° 250° (WSW) 23:42:42 435.215
Cosmos 2499 30 May 23:41:30 23:48:40 54° 285° (WNW) 23:56:28 435.465 / 435.565
50 SAT 30 May 23:43:45 23:47:19 55° 74° (ENE) 23:50:56 437.505
PHONESAT 2.4 30 May 23:45:07 23:48:05 39° 182° (S) 23:51:03 2401.200-2431.200
UKube-1 30 May 23:46:40 23:50:42 39° 70° (ENE) 23:54:45 .
NANOSAT C BR1 30 May 23:47:27 23:49:51 15° 91° (E) 23:52:14 145.865
CUSAT 1 30 May 23:53:55 00:00:42 38° 273° (W) 00:06:22 437.405
SO-50 30 May 23:58:22 00:03:01 45° 118° (ESE) 00:07:41 436.795
AISAT 30 May 23:58:48 00:03:17 80° 74° (ENE) 00:07:46 437.250
RS-15 30 May 23:59:37 00:10:37 37° 26° (NNE) 00:21:44 29.354- 29.394
DANDE 31 May 00:20:45 00:28:45 50° 270° (W) 00:35:47 436.750
DUCHIFAT 1 31 May 00:23:06 00:26:55 33° 97° (E) 00:30:42 145.980
BUGSAT 1 31 May 00:26:23 00:29:00 17° 92° (E) 00:31:37 437.445
GONETS M04 31 May 00:27:19 00:33:48 22° 299° (WNW) 00:40:17
ISS 31 May 00:31:27 00:34:08 23° 5° (N) 00:36:49 145.825
UNISAT 6 31 May 00:31:29 00:35:23 34° 291° (WNW) 00:39:20 437.425
TIGRISAT 31 May 00:37:48 00:41:35 31° 292° (WNW) 00:45:26 435.000
DX 1 31 May 00:40:21 00:44:34 46° 261° (W) 00:48:48 434.975-435.025
CUBEBUG 1 31 May 00:41:56 00:46:03 37° 262° (W) 00:50:12 437.445
SPROUT 31 May 00:51:13 00:55:30 74° 258° (WSW) 00:59:48 437.525
ESTCUBE 1 31 May 00:53:56 00:57:24 21° 267° (W) 01:00:54 437.505/2401.250
VELOX 1 31 May 00:59:31 01:03:15 26° 265° (W) 01:07:01 145.980
TISAT 1 31 May 01:01:35 01:05:33 41° 71° (ENE) 01:09:31 437.305
JAS-2 31 May 01:03:46 01:09:35 25° 88° (E) 01:14:54 435.910
POPSAT HIP 1 31 May 01:05:28 01:09:40 75° 285° (WNW) 01:13:51 437.405
QB50P1 31 May 01:05:29 01:09:41 74° 285° (WNW) 01:13:52 145.935-145.965
QB50P2 31 May 01:09:12 01:13:22 64° 287° (WNW) 01:17:32 145.880/145.840
POLYITAN 1 31 May 01:11:41 01:15:51 62° 286° (WNW) 01:20:00 437.675
ANTELSAT 31 May 01:13:51 01:16:10 14° 298° (WNW) 01:18:30 437.575/2403.000
50 SAT 31 May 01:20:46 01:21:25 10° 270° (W) 01:22:03 437.505
NANOSAT C BR1 31 May 01:21:49 01:25:54 51° 288° (WNW) 01:29:57 145.865
PHONESAT 2.4 31 May 01:21:56 01:24:26 22° 199° (SSW) 01:26:56 2401.200-2431.200
UKube-1 31 May 01:23:38 01:26:54 21° 266° (W) 01:30:10 .
SO-50 31 May 01:39:20 01:43:40 31° 317° (NW) 01:48:01 436.795
AISAT 31 May 01:39:23 01:40:19 11° 272° (W) 01:41:15 437.250
Cosmos 2499 31 May 01:42:45 01:44:08 10° 310° (NW) 01:45:32 435.465 / 435.565
SWISSCUBE 31 May 01:56:02 02:00:22 36° 68° (ENE) 02:04:43 437.505
DUCHIFAT 1 31 May 01:59:09 02:02:27 23° 294° (WNW) 02:05:44 145.980
BUGSAT 1 31 May 02:00:47 02:04:36 41° 289° (WNW) 02:08:23 437.445
ITUPSAT 1 31 May 02:04:14 02:08:37 38° 69° (ENE) 02:13:03 437.325
ISS 31 May 02:07:53 02:11:05 51° 25° (NNE) 02:14:17 145.825
RS-15 31 May 02:12:47 02:25:10 84° 55° (NE) 02:37:32 29.354- 29.394
BEESAT 31 May 02:24:52 02:29:32 62° 73° (ENE) 02:34:16 436.000
Oscar 19 31 May 02:33:42 02:38:47 55° 101° (E) 02:43:48 437.125/150
TISAT 1 31 May 02:38:24 02:41:23 19° 267° (W) 02:44:23 437.305
YUBILEINY 31 May 02:44:19 02:52:30 41° 71° (ENE) 03:00:40 435.215
JAS-2 31 May 02:47:55 02:55:15 65° 290° (WNW) 03:01:45 435.910
MOZHAYETS 4 31 May 03:03:39 03:06:25 16° 61° (ENE) 03:09:10
Cosmos 2504 31 May 03:14:59 03:21:02 21° 61° (ENE) 03:27:13 435.465 / 435.565
ITAMSAT 1 31 May 03:24:08 03:28:34 27° 95° (E) 03:32:59 435.822/435.867
Gurwin Techsat 1B 31 May 03:27:22 03:32:43 73° 103° (ESE) 03:38:01 435.225
SWISSCUBE 31 May 03:34:13 03:38:13 27° 265° (W) 03:42:15 437.505
ITUPSAT 1 31 May 03:42:40 03:46:34 25° 266° (W) 03:50:31 437.325
Cosmos 2491 31 May 03:42:54 03:51:02 44° 87° (E) 03:59:10 435.465 / 435.565
ISS 31 May 03:44:38 03:47:21 25° 223° (SW) 03:50:05 145.825
KKS-1 31 May 03:54:36 03:59:02 65° 73° (ENE) 04:03:28 437.445
BEESAT 31 May 04:04:55 04:07:45 16° 270° (W) 04:10:36 436.000
Oscar 19 31 May 04:13:53 04:17:42 21° 298° (WNW) 04:21:30 437.125/150
AO-7 31 May 04:18:14 04:25:46 36° 97° (E) 04:33:15 29.400- 29.500
STARS 31 May 04:19:38 04:23:59 62° 73° (ENE) 04:28:20 437.465
RS-15 31 May 04:26:24 04:36:22 31° 257° (WSW) 04:46:20 29.354- 29.394
JAS-2 31 May 04:34:58 04:38:44 15° 311° (NW) 04:42:20 435.910
MOZHAYETS 4 31 May 04:38:34 04:43:05 62° 260° (W) 04:47:38
CUBESAT XI-V 31 May 04:39:07 04:42:20 19° 63° (ENE) 04:45:35 437.345
YUBILEINY 31 May 04:41:10 04:49:24 48° 272° (W) 04:57:40 435.215
ITAMSAT 1 31 May 05:03:16 05:08:09 41° 292° (WNW) 05:13:02 435.822/435.867
Cosmos 2504 31 May 05:07:05 05:15:38 86° 82° (E) 05:24:32 435.465 / 435.565
Gurwin Techsat 1B 31 May 05:08:39 05:12:04 18° 301° (WNW) 05:15:28 435.225
HORYU 2 31 May 05:11:20 05:14:30 19° 93° (E) 05:17:39 437.375
AO-85 31 May 05:24:37 05:29:43 42° 117° (ESE) 05:34:44 145.980
KKS-1 31 May 05:33:53 05:36:02 13° 270° (W) 05:38:11 437.445
Cosmos 2491 31 May 05:39:29 05:47:50 45° 288° (WNW) 05:56:13 435.465 / 435.565
STRAND 1 31 May 05:58:03 06:00:01 12° 56° (NE) 06:01:59 437.568
STARS 31 May 05:58:31 06:00:44 14° 270° (W) 06:02:57 437.465
NOAA 15 31 May 06:04:34 06:07:23 14° 89° (E) 06:10:10 137.62
AO-7 31 May 06:10:43 06:18:50 57° 296° (WNW) 06:26:57 29.400- 29.500
CUBESAT XI-V 31 May 06:14:44 06:19:18 54° 260° (W) 06:23:57 437.345
Cubesat XI-IV 31 May 06:23:40 06:26:45 15° 89° (E) 06:29:48 437.490
HORYU 2 31 May 06:47:02 06:51:16 45° 290° (WNW) 06:55:30 437.375
SO-50 31 May 06:48:58 06:51:31 14° 30° (NNE) 06:54:02 436.795
NOAA 18 31 May 06:53:34 06:58:31 33° 97° (E) 07:03:26 137.9125
Cosmos 2504 31 May 07:02:02 07:08:00 22° 281° (WNW) 07:14:08 435.465 / 435.565
BRITE-PL 31 May 07:04:03 07:08:47 41° 96° (E) 07:13:08 437.365/2234.400
AO-85 31 May 07:05:18 07:10:20 37° 315° (NW) 07:15:12 145.980
CUTE-I 31 May 07:07:15 07:12:13 37° 97° (E) 07:17:10 437.470
GOMX 1 31 May 07:08:36 07:11:58 20° 91° (E) 07:15:10 467.674
AIST 1 31 May 07:18:32 07:21:13 16° 68° (ENE) 07:23:53
LilacSat-2 31 May 07:22:56 07:26:38 49° 100° (E) 07:30:19 437.200
STRAND 1 31 May 07:33:16 07:38:21 81° 76° (ENE) 07:43:30 437.568
DOVE 4 31 May 07:37:05 07:39:58 17° 91° (E) 07:42:47 437.250
Cosmos 2499 31 May 07:38:18 07:42:48 15° 55° (NE) 07:47:22 435.465 / 435.565
PRISM 31 May 07:41:36 07:44:24 18° 63° (ENE) 07:47:12 437.425
NOAA 15 31 May 07:42:26 07:47:46 78° 286° (WNW) 07:53:01 137.62
Cubesat XI-IV 31 May 08:02:01 08:07:23 75° 287° (WNW) 08:12:44 437.490
CANX-2 31 May 08:04:02 08:05:10 11° 88° (E) 08:06:19 2200.000
AO-7 31 May 08:05:32 08:09:52 15° 318° (NW) 08:14:13 29.400- 29.500
PCSat 31 May 08:11:47 08:14:15 13° 103° (ESE) 08:16:43 145.827
SO-50 31 May 08:28:17 08:33:00 62° 51° (NE) 08:37:31 436.795
CUTE 1.7 + AOD 2 31 May 08:28:53 08:31:52 18° 92° (E) 08:34:52 437.475
NOAA 18 31 May 08:34:12 08:39:11 37° 294° (WNW) 08:44:11 137.9125
GONETS M04 31 May 08:35:20 08:43:43 48° 73° (ENE) 08:52:01
COMPASS 1 31 May 08:36:41 08:37:55 11° 88° (E) 08:39:10 437.405
O/OREOS (USA 219) 31 May 08:37:24 08:40:55 22° 102° (ESE) 08:44:27 437.305
BRITE-PL 31 May 08:42:59 08:47:01 25° 296° (WNW) 08:50:47 437.365/2234.400
GOMX 1 31 May 08:45:59 08:50:19 41° 290° (WNW) 08:54:22 467.674
CUTE-I 31 May 08:47:28 08:52:10 32° 295° (WNW) 08:56:51 437.470
AO-85 31 May 08:50:40 08:52:18 11° 336° (NNW) 08:53:54 145.980
AIST 1 31 May 08:54:57 08:59:09 50° 266° (W) 09:03:19
HO-68 31 May 08:58:03 09:04:52 44° 99° (E) 09:11:38 435.675
LilacSat-2 31 May 08:58:36 09:00:32 14° 296° (WNW) 09:02:28 437.200
AUBIESAT-1 31 May 09:10:52 09:13:45 27° 103° (ESE) 09:16:39 437.475
CINEMA 3 31 May 09:13:38 09:17:43 56° 100° (E) 09:21:49 145.822/145.860
DOVE 4 31 May 09:13:52 09:17:58 42° 290° (WNW) 09:21:54 437.250
PRISM 31 May 09:15:22 09:19:22 46° 260° (W) 09:23:24 437.425
STRAND 1 31 May 09:15:52 09:18:10 13° 272° (W) 09:20:28 437.568
M-CUBED/EXP-1 PRIME 31 May 09:21:06 09:24:16 46° 105° (ESE) 09:27:28 437.505
NOAA 15 31 May 09:24:34 09:26:39 12° 305° (NW) 09:28:45 137.62
Cosmos 2499 31 May 09:29:12 09:37:49 64° 77° (ENE) 09:46:37 435.465 / 435.565
SEEDS 31 May 09:31:26 09:35:40 62° 101° (ESE) 09:39:53 437.485
CUBEBUG 2 31 May 09:35:07 09:38:49 30° 96° (E) 09:42:35 437.445
CANX-2 31 May 09:37:14 09:41:31 73° 286° (WNW) 09:45:49 2200.000
Cubesat XI-IV 31 May 09:44:33 09:46:33 12° 305° (NW) 09:48:33 437.490
FUNcube-1 31 May 09:47:31 09:50:30 19° 93° (E) 09:53:31 145.935
PCSat 31 May 09:51:24 09:56:50 90° 122° (ESE) 10:02:18 145.827
UWE-3 31 May 09:54:41 09:58:32 34° 97° (E) 10:02:26 435.000/436.395/437.385
UNISAT 6 31 May 09:55:43 09:59:17 26° 67° (ENE) 10:02:50 437.425
TIGRISAT 31 May 10:01:40 10:05:21 28° 68° (ENE) 10:08:58 435.000
CUTE 1.7 + AOD 2 31 May 10:03:51 10:07:55 43° 288° (WNW) 10:11:59 437.475
DELFI C3 31 May 10:04:21 10:06:47 15° 91° (E) 10:09:11 145.870
AAUSAT CUBESAT 2 31 May 10:08:01 10:12:15 90° 269° (W) 10:16:27 437.432
COMPASS 1 31 May 10:09:44 10:13:58 70° 285° (WNW) 10:18:09 437.405
SO-50 31 May 10:09:55 10:12:57 17° 250° (WSW) 10:15:57 436.795
O/OREOS (USA 219) 31 May 10:15:47 10:20:05 40° 300° (WNW) 10:24:22 437.305
HUMSAT D 31 May 10:20:53 10:21:53 11° 89° (E) 10:22:53 437.325/437.525
Oscar 11 31 May 10:24:29 10:28:46 54° 100° (E) 10:33:02 145.826/435.025
QB50P1 31 May 10:27:01 10:28:13 11° 60° (ENE) 10:29:24 145.935-145.965
POPSAT HIP 1 31 May 10:27:09 10:28:14 11° 59° (ENE) 10:29:20 437.405
QB50P2 31 May 10:30:09 10:32:00 13° 61° (ENE) 10:33:50 145.880/145.840
GONETS M04 31 May 10:32:29 10:40:22 40° 274° (W) 10:48:13
POLYITAN 1 31 May 10:32:34 10:34:28 13° 61° (ENE) 10:36:22 437.675
ANTELSAT 31 May 10:35:56 10:40:13 67° 74° (ENE) 10:44:28 437.575/2403.000
NANOSAT C BR1 31 May 10:41:37 10:44:01 15° 62° (ENE) 10:46:25 145.865
AUBIESAT-1 31 May 10:45:48 10:48:09 18° 299° (WNW) 10:50:29 437.475
HO-68 31 May 10:45:56 10:52:30 41° 298° (WNW) 10:59:05 435.675
ZACube-1 31 May 10:47:02 10:51:15 86° 103° (ESE) 10:55:33 437.345
BEESAT 2 31 May 10:50:41 10:53:48 22° 114° (ESE) 10:56:56 435.950
CINEMA 3 31 May 10:52:13 10:54:27 14° 298° (WNW) 10:56:41 145.822/145.860
M-CUBED/EXP-1 PRIME 31 May 10:57:22 10:58:31 11° 302° (WNW) 10:59:40 437.505
SEEDS 31 May 11:08:37 11:10:53 14° 298° (WNW) 11:13:07 437.485
CUBEBUG 2 31 May 11:11:56 11:15:22 25° 292° (WNW) 11:18:51 437.445
CUSAT 1 31 May 11:13:42 11:20:03 41° 88° (E) 11:27:20 437.405
BEESAT 3 31 May 11:16:03 11:19:57 72° 122° (ESE) 11:23:55 437.485
DUCHIFAT 1 31 May 11:16:33 11:20:16 31° 68° (ENE) 11:23:58 145.980
BUGSAT 1 31 May 11:18:00 11:20:38 16° 63° (ENE) 11:23:15 437.445
JAS-2 31 May 11:18:07 11:22:59 18° 52° (NE) 11:27:54 435.910
FUNcube-1 31 May 11:22:58 11:26:56 41° 289° (WNW) 11:30:57 145.935
Cosmos 2499 31 May 11:23:05 11:30:23 32° 277° (W) 11:37:50 435.465 / 435.565
UWE-3 31 May 11:31:33 11:34:51 23° 293° (WNW) 11:38:11 435.000/436.395/437.385
UNISAT 6 31 May 11:32:04 11:35:54 31° 264° (W) 11:39:44 437.425
PCSat 31 May 11:37:08 11:41:00 19° 321° (NW) 11:44:52 145.827
DELFI C3 31 May 11:38:01 11:41:54 46° 288° (WNW) 11:45:46 145.870
TIGRISAT 31 May 11:38:16 11:41:59 28° 264° (W) 11:45:42 435.000
DANDE 31 May 11:47:26 11:52:54 35° 85° (E) 11:59:37 436.750
AISAT 31 May 11:49:06 11:51:14 13° 90° (E) 11:53:21 437.250
HUMSAT D 31 May 11:53:48 11:57:59 71° 285° (WNW) 12:02:10 437.325/437.525
QB50P1 31 May 11:59:07 12:03:21 82° 256° (WSW) 12:07:36 145.935-145.965
POPSAT HIP 1 31 May 11:59:09 12:03:23 83° 255° (WSW) 12:07:38 437.405
Oscar 11 31 May 12:01:47 12:04:29 16° 297° (WNW) 12:07:11 145.826/435.025
QB50P2 31 May 12:03:01 12:07:15 70° 258° (WSW) 12:11:28 145.880/145.840
POLYITAN 1 31 May 12:05:32 12:09:44 69° 257° (WSW) 12:13:57 437.675
NANOSAT C BR1 31 May 12:15:09 12:19:18 57° 259° (W) 12:23:28 145.865
ANTELSAT 31 May 12:15:49 12:17:23 12° 271° (W) 12:18:57 437.575/2403.000
Oscar 19 31 May 12:15:56 12:18:38 14° 57° (ENE) 12:21:21 437.125/150
AO-85 31 May 12:16:05 12:18:15 13° 27° (NNE) 12:20:21 145.980
ZACube-1 31 May 12:26:13 12:26:55 10° 300° (WNW) 12:27:36 437.345
DX 1 31 May 12:27:05 12:30:45 26° 95° (E) 12:34:23 434.975-435.025
BEESAT 2 31 May 12:27:43 12:31:27 38° 312° (NW) 12:35:13 435.950
CUBEBUG 1 31 May 12:28:43 12:32:42 34° 97° (E) 12:36:39 437.445
SPROUT 31 May 12:36:37 12:39:21 17° 91° (E) 12:42:05 437.525
ESTCUBE 1 31 May 12:43:20 12:47:54 71° 102° (ESE) 12:52:25 437.505/2401.250
50 SAT 31 May 12:44:55 12:48:36 57° 101° (E) 12:52:17 437.505
VELOX 1 31 May 12:47:04 12:51:24 51° 100° (E) 12:55:40 145.980
BUGSAT 1 31 May 12:51:35 12:55:39 49° 260° (W) 12:59:42 437.445
DUCHIFAT 1 31 May 12:52:32 12:55:58 24° 265° (W) 12:59:26 145.980
CUSAT 1 31 May 12:55:26 13:02:05 45° 290° (WNW) 13:09:43 437.405
BEESAT 3 31 May 12:55:35 12:58:07 16° 322° (NW) 13:00:39 437.485
JAS-2 31 May 12:59:08 13:06:39 73° 72° (ENE) 13:14:31 435.910
UKube-1 31 May 13:07:42 13:11:58 56° 101° (E) 13:16:12 .
Gurwin Techsat 1B 31 May 13:12:15 13:16:02 20° 61° (ENE) 13:19:50 435.225
AISAT 31 May 13:23:46 13:28:08 63° 287° (WNW) 13:32:28 437.250
DANDE 31 May 13:29:32 13:35:28 47° 290° (WNW) 13:42:56 436.750
AO-7 31 May 13:31:33 13:35:47 15° 41° (NE) 13:40:00 29.400- 29.500
AIST 2 31 May 13:35:08 13:39:15 76° 123° (ESE) 13:43:24 435.215
Cosmos 2491 31 May 13:51:13 13:57:58 24° 62° (ENE) 14:04:38 435.465 / 435.565
Oscar 19 31 May 13:52:02 13:57:15 87° 261° (W) 14:02:29 437.125/150
AO-85 31 May 13:55:17 13:59:56 51° 49° (NE) 14:04:10 145.980
DX 1 31 May 14:03:05 14:06:57 31° 292° (WNW) 14:10:47 434.975-435.025
CUBEBUG 1 31 May 14:05:18 14:08:51 24° 294° (WNW) 14:12:21 437.445
SPROUT 31 May 14:11:29 14:15:34 47° 288° (WNW) 14:19:38 437.525
TISAT 1 31 May 14:19:05 14:23:13 58° 101° (E) 14:27:19 437.305
50 SAT 31 May 14:20:23 14:21:53 12° 297° (WNW) 14:23:21 437.505
ESTCUBE 1 31 May 14:21:45 14:24:08 14° 300° (WNW) 14:26:31 437.505/2401.250
VELOX 1 31 May 14:24:30 14:27:29 18° 297° (WNW) 14:30:26 145.980
BEESAT 31 May 14:24:53 14:27:19 14° 90° (E) 14:29:45 436.000
ITAMSAT 1 31 May 14:43:32 14:48:30 49° 70° (ENE) 14:53:30 435.822/435.867
UKube-1 31 May 14:44:58 14:47:35 16° 298° (WNW) 14:50:10 .
CUSAT 1 31 May 14:45:02 14:46:34 11° 313° (NW) 14:48:07 437.405
JAS-2 31 May 14:46:10 14:52:16 26° 271° (W) 14:58:38 435.910
Gurwin Techsat 1B 31 May 14:50:16 14:55:31 62° 259° (WSW) 15:00:48 435.225
AIST 2 31 May 15:15:31 15:18:14 17° 322° (NW) 15:20:58 435.215
AO-7 31 May 15:18:46 15:26:47 56° 63° (ENE) 15:34:51 29.400- 29.500
DANDE 31 May 15:19:36 15:20:48 10° 315° (NW) 15:22:01 436.750
SWISSCUBE 31 May 15:31:36 15:36:24 68° 103° (ESE) 15:41:11 437.505
Oscar 19 31 May 15:35:45 15:37:17 11° 273° (W) 15:38:50 437.125/150
AO-85 31 May 15:36:41 15:39:58 20° 250° (WSW) 15:43:02 145.980
ITUPSAT 1 31 May 15:40:13 15:45:03 73° 103° (ESE) 15:49:51 437.325
KKS-1 31 May 15:46:36 15:47:34 11° 88° (E) 15:48:33 437.445
Cosmos 2491 31 May 15:47:08 15:55:55 82° 264° (W) 16:04:37 435.465 / 435.565
YUBILEINY 31 May 15:47:30 15:55:30 44° 87° (E) 16:03:34 435.215
TISAT 1 31 May 15:56:09 15:58:26 14° 298° (WNW) 16:00:41 437.305
BEESAT 31 May 16:00:49 16:05:36 70° 287° (WNW) 16:10:22 436.000
Cosmos 2504 31 May 16:01:03 16:03:08 11° 72° (ENE) 16:05:15 435.465 / 435.565
HORYU 2 31 May 16:11:00 16:14:24 22° 65° (ENE) 16:17:50 437.375
ITAMSAT 1 31 May 16:24:13 16:28:14 22° 267° (W) 16:32:16 435.822/435.867
MOZHAYETS 4 31 May 16:32:08 16:36:06 27° 95° (E) 16:40:03
RS-15 31 May 16:38:18 16:48:45 45° 109° (ESE) 16:59:42 29.354- 29.394
BRITE-PL 31 May 16:42:25 16:43:07 10° 54° (NE) 16:43:49 437.365/2234.400
NOAA 18 31 May 16:45:06 16:47:10 12° 54° (NE) 16:49:14 137.9125
PCSat 31 May 16:55:03 16:59:08 21° 40° (NE) 17:03:11 145.827
CUTE-I 31 May 16:55:12 16:56:49 11° 54° (NE) 16:58:26 437.470
SWISSCUBE 31 May 17:10:46 17:13:40 16° 300° (WNW) 17:16:33 437.505
AO-7 31 May 17:12:26 17:19:51 36° 263° (W) 17:27:22 29.400- 29.500
ITUPSAT 1 31 May 17:19:34 17:22:18 15° 301° (WNW) 17:25:01 437.325
KKS-1 31 May 17:20:15 17:24:41 78° 287° (WNW) 17:29:07 437.445
NOAA 15 31 May 17:25:30 17:29:59 29° 64° (ENE) 17:34:30 137.62
STARS 31 May 17:43:29 17:47:53 85° 282° (WNW) 17:52:15 437.465
YUBILEINY 31 May 17:44:07 17:52:17 44° 288° (WNW) 18:00:33 435.215
Cosmos 2491 31 May 17:46:13 17:51:18 17° 285° (WNW) 17:56:21 435.465 / 435.565
HORYU 2 31 May 17:46:37 17:50:44 39° 262° (W) 17:54:54 437.375
Cubesat XI-IV 31 May 17:46:44 17:51:19 30° 65° (ENE) 17:55:55 437.490
Cosmos 2504 31 May 17:47:34 17:54:46 68° 93° (E) 18:02:29 435.465 / 435.565
BEESAT 3 31 May 17:55:45 17:57:23 12° 34° (NE) 17:59:00 437.485
LilacSat-2 31 May 18:06:37 18:09:59 31° 70° (ENE) 18:13:20 437.200
MOZHAYETS 4 31 May 18:09:07 18:13:17 33° 292° (WNW) 18:17:26
CUBESAT XI-V 31 May 18:09:43 18:13:59 33° 96° (E) 18:18:12 437.345
BRITE-PL 31 May 18:14:54 18:20:29 59° 72° (ENE) 18:26:01 437.365/2234.400
GOMX 1 31 May 18:16:59 18:21:44 32° 68° (ENE) 18:26:20 467.674
NOAA 18 31 May 18:21:28 18:26:53 73° 72° (ENE) 18:32:21 137.9125
CUTE-I 31 May 18:30:38 18:35:55 71° 73° (ENE) 18:41:14 437.470
PCSat 31 May 18:37:44 18:43:12 81° 240° (WSW) 18:48:36 145.827
DOVE 4 31 May 18:43:10 18:47:23 27° 67° (ENE) 18:51:27 437.250
O/OREOS (USA 219) 31 May 18:44:37 18:49:03 57° 63° (ENE) 18:53:26 437.305
RS-15 31 May 18:49:28 19:00:48 62° 314° (NW) 19:12:50 29.354- 29.394
CANX-2 31 May 18:59:23 19:00:15 11° 60° (ENE) 19:01:08 2200.000
NOAA 15 31 May 19:04:35 19:09:35 41° 262° (W) 19:14:38 137.62
BEESAT 2 31 May 19:06:33 19:09:58 26° 44° (NE) 19:13:22 435.950
STARS 31 May 19:23:16 19:23:30 10° 302° (WNW) 19:23:44 437.465
CUTE 1.7 + AOD 2 31 May 19:23:40 19:26:22 17° 64° (ENE) 19:29:05 437.475
Cubesat XI-IV 31 May 19:26:19 19:31:15 39° 262° (W) 19:36:14 437.490
HO-68 31 May 19:28:29 19:34:58 39° 62° (ENE) 19:41:30 435.675
COMPASS 1 31 May 19:30:24 19:30:57 10° 59° (ENE) 19:31:30 437.405
BEESAT 3 31 May 19:31:51 19:35:48 72° 54° (NE) 19:39:44 437.485
LilacSat-2 31 May 19:41:32 19:44:20 20° 266° (W) 19:47:10 437.200
STRAND 1 31 May 19:42:39 19:46:49 24° 94° (E) 19:50:57 437.568
Cosmos 2504 31 May 19:43:04 19:48:57 25° 296° (WNW) 19:55:09 435.465 / 435.565
CUBESAT XI-V 31 May 19:47:14 19:51:16 29° 293° (WNW) 19:55:16 437.345
GOMX 1 31 May 19:54:38 19:59:41 38° 263° (W) 20:04:36 467.674
BRITE-PL 31 May 19:54:55 19:59:15 22° 269° (W) 20:03:36 437.365/2234.400
AUBIESAT-1 31 May 19:58:03 20:01:54 55° 68° (ENE) 20:05:30 437.475
NOAA 18 31 May 20:04:50 20:08:07 16° 270° (W) 20:11:24 137.9125
M-CUBED/EXP-1 PRIME 31 May 20:08:47 20:12:50 89° 239° (WSW) 20:16:34 437.505
CUTE-I 31 May 20:13:21 20:16:30 16° 270° (W) 20:19:41 437.470
CINEMA 3 31 May 20:16:21 20:20:56 64° 74° (ENE) 20:25:20 145.822/145.860
AIST 2 31 May 20:17:44 20:19:59 14° 35° (NE) 20:22:14 435.215
DOVE 4 31 May 20:20:04 20:24:54 40° 262° (W) 20:29:33 437.250
PCSat 31 May 20:23:57 20:25:41 11° 258° (WSW) 20:27:25 145.827
SEEDS 31 May 20:24:30 20:28:33 51° 73° (ENE) 20:32:39 437.485
ISS 31 May 20:24:35 20:27:38 38° 141° (SE) 20:30:43 145.825
O/OREOS (USA 219) 31 May 20:25:23 20:27:57 15° 261° (W) 20:30:30 437.305
CANX-2 31 May 20:31:14 20:35:26 85° 255° (WSW) 20:39:42 2200.000
CUBEBUG 2 31 May 20:34:52 20:38:40 31° 69° (ENE) 20:42:24 437.445
BEESAT 2 31 May 20:44:13 20:47:53 35° 243° (WSW) 20:51:31 435.950
FUNcube-1 31 May 20:45:07 20:47:58 18° 65° (ENE) 20:50:49 145.935
DELFI C3 31 May 20:53:04 20:54:41 12° 62° (ENE) 20:56:18 145.870
UWE-3 31 May 20:53:21 20:57:09 34° 70° (ENE) 21:00:56 435.000/436.395/437.385
PRISM 31 May 20:55:48 20:58:58 20° 94° (E) 21:02:05 437.425
CUTE 1.7 + AOD 2 31 May 20:57:45 21:01:49 49° 261° (W) 21:05:58 437.475
AAUSAT CUBESAT 2 31 May 20:59:29 21:03:36 72° 75° (ENE) 21:07:46 437.432
COMPASS 1 31 May 21:01:41 21:05:49 86° 255° (WSW) 21:10:02 437.405
RS-15 31 May 21:06:19 21:16:23 31° 345° (NNW) 21:26:51 29.354- 29.394
PHONESAT 2.4 31 May 21:07:02 21:09:29 21° 160° (SSE) 21:11:58 2401.200-2431.200
BEESAT 3 31 May 21:11:38 21:12:56 11° 251° (WSW) 21:14:13 437.485
HO-68 31 May 21:15:50 21:22:36 45° 261° (W) 21:29:25 435.675
Oscar 11 31 May 21:20:35 21:24:45 51° 72° (ENE) 21:28:56 145.826/435.025
STRAND 1 31 May 21:21:17 21:26:11 45° 291° (WNW) 21:31:04 437.568
AIST 1 31 May 21:25:16 21:29:40 87° 96° (E) 21:34:06
AUBIESAT-1 31 May 21:34:58 21:36:37 12° 262° (W) 21:38:14 437.475
GONETS M04 31 May 21:38:14 21:46:37 52° 89° (E) 21:54:58
ZACube-1 31 May 21:44:15 21:48:26 81° 78° (ENE) 21:52:37 437.345
CUSAT 1 31 May 21:47:33 21:54:20 34° 65° (ENE) 22:00:01 437.405
AIST 2 31 May 21:54:59 21:59:09 82° 57° (ENE) 22:03:18 435.215
CINEMA 3 31 May 21:56:07 21:58:26 14° 270° (W) 22:00:43 145.822/145.860
ISS 31 May 22:01:00 22:04:05 38° 339° (NNW) 22:07:12 145.825
SEEDS 31 May 22:02:12 22:04:35 15° 270° (W) 22:06:58 437.485
CUBEBUG 2 31 May 22:11:48 22:15:19 24° 265° (W) 22:18:48 437.445
